Other Public Products
Issued by NWS Grand Forks, ND

Home | Current Version | Previous Version | Text Only | Print | Product List | Glossary Off
Versions: 1 2 3 4 5 6 7 8 9 10 11 12 13 14 15 16 17 18 19 20 21 22 23 24 25 26 27 28 29 30 31 32 33 34 35 36 37 38 39 40 41 42 43 44 45 46 47 48 49 50

000
FPUS83 KFGF 021531
OPUFGF
PRAIRIE TO PINES WEATHER ROUNDUP
NATIONAL WEATHER SERVICE EASTERN NORTH DAKOTA/GRAND FORKS ND
1000 AM CDT WED SEP 02 2015

 **SATELLITE DATA USED TO AUGMENT SKY COVER AT AUTOMATED STATIONS**
 *****  WEATHER ACROSS EASTERN NORTH DAKOTA  *****

CITY           SKY/WX    TMP DP  RH WIND       PRES   REMARKS
GRAND FORKS    MOSUNNY   74  67  78 S10       29.82S
GRAND FORKS AF MOSUNNY   73  68  84 S10       29.83S
GRAND CITY NWS   N/A     72 N/A N/A S13         N/A
BUXTON         NOT AVBL
DEVILS LAKE    SUNNY     75  64  69 S9        29.81S
FARGO          SUNNY     75  63  66 SE8G21    29.82F
WAHPETON ARPT  SUNNY     73  63  68 SE14      29.84S
$$

 *****  WEATHER ACROSS CENTRAL AND WESTERN NORTH DAKOTA  *****

CITY           SKY/WX    TMP DP  RH WIND       PRES   REMARKS
JAMESTOWN      SUNNY     72  66  81 SE8       29.82F
BISMARCK       CLOUDY    69  66  90 E7        29.79F FOG
MINOT          SUNNY     74  64  71 CALM      29.77F
MINOT AFB      SUNNY     77  70  80 CALM      29.76F
GARRISON         N/A     72  66  81 SE6       29.79F
WILLISTON      PTSUNNY   73  57  57 S3        29.76F
DICKINSON      MOSUNNY   78  57  48 E9        29.78S
HETTINGER      MOSUNNY   71  56  58 S6        29.84R
$$

 *****  OTHER OBSERVATIONS NORTHEAST NORTH DAKOTA  *****

CITY           SKY/WX    TMP DP  RH WIND       PRES   REMARKS
WALHALLA       FAIR      77  73  88 MISG      29.80F
LANGDON        FAIR      81  68  65 S12       29.83S
CAVALIER       FAIR      72  66  83 S8        29.81F
GRAFTON        CLOUDY    70  70 100 S10       29.83S FOG
CANDO          FAIR      75  68  78 SE10      29.81S
FORT TOTTEN      N/A     74  69  83 S7        29.95
ROLLA          FAIR      75  66  73 S6        29.81F
RUGBY          FAIR      75  68  78 S6        29.79S
 ***** THE ABOVE OBSERVATIONS ARE NON NWS ARE NOT QUALITY
        CONTROLLED AND MAY MIS-REPORT RAIN FOR SNOW...
$$

 *****  OTHER OBSERVATIONS SOUTHEAST NORTH DAKOTA *****

CITY           SKY/WX    TMP DP  RH WIND       PRES   REMARKS
COOPERSTOWN    NOT AVBL
VALLEY CITY    FAIR      72  72 100 SE8       29.84S
OAKES            N/A     75  72  88 E7        29.81F
GWINNER          N/A     73  70  88 E7        29.83S
SHEYENNE NWR     N/A     72  66  82 S9        29.95S
BUFFALO        NOT AVBL
WYNDMERE         N/A     73  66  78 SE9         N/A
 ***** THE ABOVE OBSERVATIONS ARE NON NWS ARE NOT QUALITY
       CONTROLLED AND MAY MIS-REPORT RAIN FOR SNOW...
$$

  *****  WEATHER ACROSS NORTHERN MINNESOTA  *****

CITY           SKY/WX    TMP DP  RH WIND       PRES   REMARKS
FLAG ISLAND    SUNNY     70  64  83 S8        29.87S
WARROAD        SUNNY     73  70  88 NE5       29.88S
ROSEAU         SUNNY     75  70  83 S8        29.86S
HALLOCK        SUNNY     75  70  83 S12       29.82S
THF RVR FALLS  SUNNY     75  66  73 S10       29.86F
HALSTAD        NOT AVBL
FOSSTON        SUNNY     79  63  57 S13       29.88F
BAUDETTE       SUNNY     73  65  75 SE6       29.89S
WASKISH        SUNNY     79  70  73 SE3       29.91R
CROOKSTON      SUNNY     75  64  69 S12       29.84F
$$
  *****  WEATHER ACROSS CENTRAL AND WEST MINNESOTA  *****

CITY           SKY/WX    TMP DP  RH WIND       PRES   REMARKS
BEMIDJI        SUNNY     77  69  76 SE7       29.91S
PARK RAPIDS    MOSUNNY   74  67  78 SE8       29.90F
WADENA         SUNNY     73  66  78 SE9       29.88F
DETROIT LAKES  SUNNY     75  64  69 SE14      29.88F
MOORHEAD       SUNNY     75  64  69 SE13      29.84F
FERGUS FALLS   SUNNY     75  64  69 SE12      29.84F
ELBOW LAKE     FAIR      74  67  77 SE12      29.86S
MORRIS MN      SUNNY     75  68  78 SE9       29.84F
STAPLES        SUNNY     73  63  68 SE7       29.90S
WHEATON        SUNNY     72  66  83 SE12      29.85S
$$
  *****  WEATHER ELSEWHERE ACROSS MINNESOTA  *****

CITY           SKY/WX    TMP DP  RH WIND       PRES   REMARKS
DULUTH         LGT RAIN  65  63  93 E10       30.00F FOG
INTRNTL FALLS  PTSUNNY   73  66  78 SE7       29.94S
ELY            CLOUDY    64  61  88 S8        30.02R
CLOQUET        PTSUNNY   68  63  83 E7        29.97S
BRAINERD       SUNNY     76  63  64 S8        29.92S
HIBBING        LGT RAIN  67  64  90 E10       30.02R
ALEXANDRIA     SUNNY     73  65  75 SE9       29.89F
SAINT CLOUD    CLOUDY    70  67  90 E7        29.90F
MINNEAPOLIS    CLOUDY    71  67  87 SE10      29.92S
$$

  *****  WEATHER ACROSS SOUTH DAKOTA  *****

CITY           SKY/WX    TMP DP  RH WIND       PRES   REMARKS
SIOUX FALLS    MOSUNNY   75  69  81 S10       29.86S
BROOKINGS      SUNNY     73  68  83 S9        29.87F
WATERTOWN      SUNNY     75  68  78 S13       29.84F
HURON          SUNNY     74  68  81 SE9       29.80S
SISSETON         N/A     71  65  81 S8        29.83F
ABERDEEN       SUNNY     75  68  78 S6        29.80F
MITCHELL       SUNNY     76  69  79 SE9       29.81S
PIERRE         FOG       64  64 100 S3        29.78S VSB 1/4
MOBRIDGE       CLOUDY    69  69 100 NE3       29.78R FOG
RAPID CITY     PTSUNNY   77  51  40 CALM      29.85F
$$

  *****  SOME WEATHER IN NEARBY STATES *****

CITY           SKY/WX    TMP DP  RH WIND       PRES   REMARKS
GLASGOW MT     SUNNY     67  43  41 SE16      29.67F
GREAT FALLS MT PTSUNNY   63  34  33 CALM      29.71F
CHEYENNE WY    SUNNY     76  42  29 W17       30.14S
SCOTTSBLUFF NE MOSUNNY   67  50  54 CALM      29.99S
OMAHA NE       MOSUNNY   79  69  71 S17       29.93R
DES MOINES IA  MOSUNNY   76  69  79 S17G25    29.97F
DAVENPORT IA   CLOUDY    79  70  74 SW8       30.04F
CHICAGO IL     MOSUNNY   80  69  69 SW7       30.06F
EAU CLAIRE WI  TSTM      69  67  93 NE7       29.97S FOG
LA CROSSE WI   CLOUDY    79  69  71 S12       29.96S
$$

  *****  SOME NATIONAL WEATHER *****

CITY           SKY/WX    TMP DP  RH WIND       PRES   REMARKS
LA GUARDIA NY  PTSUNNY   84  65  52 SW8       30.01F
RALEIGH NC     PTSUNNY   87  71  58 CALM      30.08S HX  93
ATLANTA GA     PTSUNNY   84  69  60 W6        30.14S
NEW ORLEANS LA PTSUNNY   84  73  69 NE7       30.06S HX  90
OKLAHOMA CITY  MOSUNNY   80  68  66 S13       30.06S
ALBUQUERQUE NM PTSUNNY   72  49  44 E5        30.24R
SALT LAKE CITY MOSUNNY   78  45  30 S21       30.02R
LOS ANGELES CA CLOUDY    70  60  70 SW3       29.98R
BOISE ID       CLOUDY    68  39  34 SE6       29.88R
SEATTLE WA     PTSUNNY   57  54  88 S12       29.89R
$$

*** WEATHER ACROSS MANITOBA...SASKATCHEWAN AND ONTARIO ***
                ***ONTARIO***

CITY           SKY/WX    TMP DP  RH WIND       PRES   REMARKS
GERALDTON      MOSUNNY   72  59  64 W5        29.99R
THUNDER BAY    PTSUNNY   64  59  82 SW5       30.00R
SIOUX LOOKOUT  SUNNY     72  59  64 S5        29.96R
TORONTO        MOSUNNY   82  70  65 VRB2      30.03S
BIG TROUT LK   CLOUDY    55  54  94 SE7       29.92R
PICKLE LAKE    MOSUNNY   72  57  60 VRB2      29.94S
DRYDEN         SUNNY     73  57  56 S10       29.95R
KENORA         MOSUNNY   73  64  73 S8        29.90S
$$
                *** MANITOBA***

CITY           SKY/WX    TMP DP  RH WIND       PRES   REMARKS
BRANDON        MOSUNNY   72  64  78 VRB2      29.79F
DAUPHIN        SUNNY     72  59  64 W3        29.79S
ISLAND LAKE    PTSUNNY   68  59  73 SE7       29.81S
PILOT MOUND      N/A     75  66  73 S5          N/A
THE PAS        MOSUNNY   63  50  63 NW9       29.81R
THOMPSON         N/A     57  55  94 VRB2      29.78R FOG
WINNIPEG       SUNNY     75  68  78 S12       29.79F
LYNN LAKE      SUNNY     54  46  76 NW6       29.82R
CHURCHILL      CLOUDY    52  46  82 S20       29.86S
GILLAM         CLOUDY    52  50  93 SE7       29.84S
$$
                ***SASKATCHEWAN***

CITY           SKY/WX    TMP DP  RH WIND       PRES   REMARKS
ESTEVAN        PTSUNNY   70  52  52 E10       29.77F
KINDERSLEY     CLOUDY    61  39  44 S10       29.62F
LLOYDMINSTER   PTSUNNY   55  45  67 SE13      29.60F
PRINCE ALBERT  PTSUNNY   59  50  72 E14G21    29.72F
REGINA         PTSUNNY   64  48  55 SE16      29.74F


USA.gov is the U.S. government's official web portal to all federal, state and local government web resources and services.